DW1410 Paimio FI current weather conditions

sailwx.info

Wind from 334

Air temperature 10.6° C
Dewpoint 9.1° C

Last reported at 2019-Jul-19 02:45 UTC.
Time now 2019-Jul-19 03:37 UTC

Location: N 60°28' E 022°42'.
View on Google Maps.

See reports from other nearby stations

  
Tides and Currents Weather Stations Pressure Air Temp Water Temp Dewpoint Dewpoint Depression Visibility Wind Speed Wind Dir Waves Ship Positions
date/time (UTC)wind fromknots sea level pressurealtimeterstation pressurevisibilityair tempwater tempwave heightnotes
2019-Jul-19 02:45 334 10.6
2019-Jul-19 02:30 332 10.6
2019-Jul-19 02:15 332 10.6
2019-Jul-19 02:00 349 10.6
2019-Jul-19 01:45 360 10.6
2019-Jul-19 01:30 337 10.6
2019-Jul-19 01:15 337 10.6
2019-Jul-19 01:00 337 10.6
2019-Jul-19 00:45 337 10.6
2019-Jul-19 00:30 337 11.1
2019-Jul-19 00:15 331 11.1
2019-Jul-19 00:00 296 11.7
2019-Jul-18 23:46 296 12.2
2019-Jul-18 23:32 296 12.2
2019-Jul-18 23:16 326 12.8
2019-Jul-18 23:02 294 12.8
2019-Jul-18 22:46 335 13.3
2019-Jul-18 22:31 335 13.9
2019-Jul-18 22:17 285 13.9
2019-Jul-18 22:01 327 0 gusting 4 13.9
2019-Jul-18 21:46 314 0 gusting 3 14.4
2019-Jul-18 21:32 319 0 gusting 2 15.0
2019-Jul-18 21:16 327 0 gusting 4 15.0
2019-Jul-18 21:00 308 0 gusting 1 15.6
2019-Jul-18 20:46 317 0 gusting 2 15.6
2019-Jul-18 20:31 339 16.1
2019-Jul-18 20:16 313 15.6
2019-Jul-18 20:01 313 16.1
2019-Jul-18 19:46 337 16.1
2019-Jul-18 19:31 330 16.7
2019-Jul-18 19:16 330 16.7
2019-Jul-18 19:01 330 17.8
2019-Jul-18 18:45 330 18.3
2019-Jul-18 18:31 300 18.9
2019-Jul-18 18:16 305 1 gusting 3 19.4
2019-Jul-18 18:00 327 0 gusting 2 20.0
2019-Jul-18 17:45 302 20.0
2019-Jul-18 17:31 337 0 gusting 3 20.6
2019-Jul-18 17:16 311 2 gusting 6 20.6
2019-Jul-18 17:01 333 2 gusting 8 20.6
2019-Jul-18 16:46 314 2 gusting 6 20.6
2019-Jul-18 16:30 303 2 gusting 7 20.6
2019-Jul-18 16:16 314 3 gusting 8 20.6
2019-Jul-18 16:00 323 0 gusting 2 21.1
2019-Jul-18 15:45 345 0 gusting 9 22.2
2019-Jul-18 15:30 338 0 gusting 5 22.2
2019-Jul-18 15:15 344 1 gusting 4 22.2
2019-Jul-18 15:00 310 1 gusting 9 22.2
2019-Jul-18 14:45 323 1 gusting 5 22.2
2019-Jul-18 14:31 298 21.1
2019-Jul-18 14:15 341 2 gusting 6 21.7
2019-Jul-18 14:01 300 2 gusting 7 22.8
2019-Jul-18 13:45 319 2 gusting 6 22.8
2019-Jul-18 13:30 019 1 gusting 6 22.8
2019-Jul-18 13:15 318 3 gusting 7 22.8
2019-Jul-18 13:00 301 3 gusting 9 23.3
2019-Jul-18 12:45 046 2 gusting 8 22.8
2019-Jul-18 12:30 315 2 gusting 6 22.8
2019-Jul-18 12:15 315 0 gusting 5 22.2
2019-Jul-18 12:00 321 0 gusting 6 21.1
2019-Jul-18 11:45 323 1 gusting 4 22.8
2019-Jul-18 11:30 325 1 gusting 5 21.1
2019-Jul-18 11:15 347 0 gusting 2 21.1
2019-Jul-18 11:00 331 1 gusting 8 22.2
2019-Jul-18 10:45 302 1 gusting 4 22.2
2019-Jul-18 10:30 302 1 gusting 6 22.2
2019-Jul-18 10:15 049 22.2
2019-Jul-18 10:00 309 0 gusting 4 22.8
2019-Jul-18 09:31 307 20.0
2019-Jul-18 09:17 307 0 gusting 5 22.2
2019-Jul-18 09:03 351 0 gusting 5 21.7
2019-Jul-18 08:47 080 1 gusting 6 21.7
2019-Jul-18 08:31 080 0 gusting 2 21.7
2019-Jul-18 08:16 346 2 gusting 6 20.0
2019-Jul-18 08:01 286 0 gusting 5 20.0
2019-Jul-18 07:46 043 0 gusting 2 20.0
2019-Jul-18 07:30 323 0 gusting 3 19.4
2019-Jul-18 07:17 350 0 gusting 3 18.9
2019-Jul-18 07:00 294 0 gusting 2 18.9
2019-Jul-18 06:45 342 0 gusting 1 17.8
2019-Jul-18 06:30 306 17.8
2019-Jul-18 06:15 313 16.1
2019-Jul-18 06:00 144 0 gusting 1 15.0
2019-Jul-18 05:45 057 15.0
2019-Jul-18 05:31 057 0 gusting 2 13.9
2019-Jul-18 05:17 082 13.9
2019-Jul-18 05:01 086 13.3
2019-Jul-18 04:46 086 12.8
2019-Jul-18 04:31 086 12.2
2019-Jul-18 04:17 086 11.7
2019-Jul-18 04:02 086 10.6
2019-Jul-18 03:46 086 10.0
2019-Jul-18 03:32 086 9.4
2019-Jul-18 03:16 086 9.4
2019-Jul-18 03:01 086 8.9
2019-Jul-18 02:46 086 8.9
2019-Jul-18 02:31 086 8.9
2019-Jul-18 02:16 086 8.9
2019-Jul-18 02:00 086 8.9
2019-Jul-18 01:47 086 8.9
2019-Jul-18 01:31 086 8.9
2019-Jul-18 01:16 086 8.9
2019-Jul-18 01:00 086 8.9
2019-Jul-18 00:45 086 9.4
2019-Jul-18 00:30 086 9.4
2019-Jul-18 00:15 086 9.4
2019-Jul-18 00:01 086 9.4
2019-Jul-17 23:45 086 10.0
2019-Jul-17 23:30 086 10.0
2019-Jul-17 23:15 086 10.6
2019-Jul-17 23:00 086 10.6
2019-Jul-17 22:46 086 10.6
2019-Jul-17 22:30 086 11.1
2019-Jul-17 22:15 086 11.1
2019-Jul-17 22:00 088 11.1
2019-Jul-17 21:45 088 0 gusting 1 11.7
2019-Jul-17 21:30 088 11.7
2019-Jul-17 21:15 088 11.7
2019-Jul-17 21:00 088 12.2
2019-Jul-17 20:45 088 12.2
2019-Jul-17 20:30 088 12.8
2019-Jul-17 20:15 088 12.8
2019-Jul-17 20:00 088 13.3
2019-Jul-17 19:45 088 13.3
2019-Jul-17 19:31 088 13.9
2019-Jul-17 19:17 088 13.9
2019-Jul-17 19:01 088 13.9
2019-Jul-17 18:47 088 13.9
2019-Jul-17 18:32 088 0 gusting 5 14.4
2019-Jul-17 18:16 242 14.4
2019-Jul-17 18:01 193 13.9
2019-Jul-17 17:46 193 14.4
2019-Jul-17 17:31 012 0 gusting 5 15.0
2019-Jul-17 17:16 322 1 gusting 4 16.7
2019-Jul-17 17:01 190 2 gusting 6 18.3
2019-Jul-17 16:47 303 18.9
2019-Jul-17 16:31 311 0 gusting 5 18.9
2019-Jul-17 16:16 029 0 gusting 3 19.4
2019-Jul-17 16:01 310 0 gusting 5 20.0
2019-Jul-17 15:46 335 0 gusting 2 20.6
2019-Jul-17 15:31 339 21.1
2019-Jul-17 15:17 346 1 gusting 4 21.7
2019-Jul-17 15:01 189 22.8
2019-Jul-17 14:46 153 1 gusting 5 22.8
2019-Jul-17 14:31 102 0 gusting 6 22.8
2019-Jul-17 14:16 094 0 gusting 6 22.8
2019-Jul-17 14:01 069 2 gusting 6 22.2
2019-Jul-17 13:45 067 0 gusting 2 22.2
2019-Jul-17 13:30 044 22.2
2019-Jul-17 13:16 321 0 gusting 5 23.3
2019-Jul-17 13:00 043 1 gusting 6 23.3
2019-Jul-17 12:45 160 3 gusting 6 23.9
2019-Jul-17 12:30 113 0 gusting 6 22.8
2019-Jul-17 12:15 088 21.7
2019-Jul-17 12:00 076 0 gusting 3 21.1
2019-Jul-17 11:45 076 0 gusting 4 21.7
2019-Jul-17 11:30 046 22.2
2019-Jul-17 11:15 153 1 gusting 6 22.2
2019-Jul-17 11:00 063 0 gusting 3 22.8
2019-Jul-17 10:45 067 0 gusting 3 22.2
2019-Jul-17 10:30 310 0 gusting 2 22.2
2019-Jul-17 10:15 345 21.7
2019-Jul-17 10:00 084 22.2
2019-Jul-17 09:45 105 22.8
2019-Jul-17 09:30 145 0 gusting 5 22.2
2019-Jul-17 09:15 090 0 gusting 6 21.7
2019-Jul-17 09:00 076 1 gusting 4 21.7
2019-Jul-17 08:45 305 1 gusting 7 21.7
2019-Jul-17 08:30 114 1 gusting 5 22.2
2019-Jul-17 08:15 152 0 gusting 4 21.7
2019-Jul-17 08:00 011 1 gusting 5 21.1
2019-Jul-17 07:47 073 2 gusting 6 21.1
2019-Jul-17 07:32 009 0 gusting 3 20.6
2019-Jul-17 07:17 107 2 gusting 6 19.4
2019-Jul-17 07:01 085 1 gusting 6 18.9
2019-Jul-17 06:45 102 1 gusting 5 18.3
2019-Jul-17 06:31 040 0 gusting 6 17.8
2019-Jul-17 06:17 076 0 gusting 6 17.2
2019-Jul-17 06:01 005 0 gusting 3 16.7
2019-Jul-17 05:45 074 16.1
2019-Jul-17 05:30 090 0 gusting 6 15.0
2019-Jul-17 05:15 092 1 gusting 3 15.0
2019-Jul-17 05:00 080 0 gusting 6 13.9
2019-Jul-17 04:45 082 0 gusting 5 12.8
2019-Jul-17 04:16 078 0 gusting 2 11.7
2019-Jul-17 04:02 086 0 gusting 3 11.1
2019-Jul-17 03:46 071 0 gusting 3 11.1
2019-Jul-17 03:32 071 0 gusting 6 10.6
2019-Jul-17 03:16 084 1 gusting 4 10.6
2019-Jul-17 03:02 065 10.0